Terug naar catalogus

SL-16 DEB

ActiefLEO
NORAD 22577·DEBRIS·🇷🇺 Russia

Gelanceerd Mar 26, 1993 vanaf Baikonur Cosmodrome

Loading…

Volgende Passages (komende 24 uur)

TLE

VersSource: Space-Track

Epoch: Sep 14, 2026, 14:31 UTC

1 22577U 93016E   26257.60545949  .00000043  00000-0  26934-4 0  9991
2 22577  71.0393 128.1231 0117885 291.2645  87.7569 14.43939011761950

Volg SL-16 DEB in realtime met AllMySat

Download on the App Store